Regional Weather Roundup
Issued by NWS Jackson, KY

Home | Current Version | Previous Version | Text Only | Print | Product List | Glossary Off
Versions: 1 2 3 4 5 6 7 8 9 10 11 12 13 14 15 16 17 18 19 20 21 22 23 24 25 26 27

000
ASUS43 KJKL 241810
RWRJKL

EAST KENTUCKY HOURLY WEATHER ROUNDUP
NATIONAL WEATHER SERVICE JACKSON KY
200 PM EDT WED MAY 24 2017

NOTE: "FAIR" INDICATES FEW OR NO CLOUDS BELOW 12,000 FEET WITH
NO SIGNIFICANT WEATHER AND/OR OBSTRUCTIONS TO VISIBILITY.

* THESE REPORTS ARE NOT UNDER NWS QUALITY CONTROL AND MAY NOT
  REPORT WEATHER SUCH AS PRECIPITATION AND FOG.

KYZ079-080-083-085-087-088-110-112-115-119-120-241900
...EASTERN KENTUCKY...

CITY           SKY/WX    TMP DP  RH WIND       PRES   REMARKS
JACKSON        LGT RAIN  62  61  96 VRB5      29.45F
6HR MIN TEMP:  59; 6HR MAX TEMP:  62; 6HR PCP:  0.37;

LONDON         CLOUDY    66  59  78 SE9       29.45S
6HR MIN TEMP:  58; 6HR MAX TEMP:  66; 6HR PCP:  0.32;

SOMERSET*      CLOUDY    66  59  77 S7        29.44F
MONTICELLO*    LGT RAIN  69  62  78 SE9       29.42F
6HR MIN TEMP:  60; 6HR MAX TEMP:  70; 6HR PCP:  0.67;

WILLIAMSBURG*  CLOUDY    66  63  88 SE10      29.45F
MIDDLESBORO*   LGT RAIN  65  60  84 S7        29.49S
6HR MIN TEMP:  60; 6HR MAX TEMP:  65; 6HR PCP:  1.13;

HARLAN APT*    MOCLDY    63  59  88 CALM      29.50S
PIKE CO APT*   TSTM      60  60 100 CALM      29.49S
BIG SANDY APT* RAIN      62  62 100 NE6       29.48F
6HR MIN TEMP:  60; 6HR MAX TEMP:  68;

MOREHEAD APT*  LGT RAIN  64  59  82 VRB5      29.47F
ASHLAND*       CLOUDY    66  63  88 SE5       29.46F
$$

KYZ035-036-041-042-044-050-067-078-099-241900
...CENTRAL KENTUCKY...

CITY           SKY/WX    TMP DP  RH WIND       PRES   REMARKS
MT STERLING*   CLOUDY    63  61  94 SE8       29.45F
FLEMING/MASON* CLOUDY    65  59  79 E15       29.45F
DANVILLE*      CLOUDY    68  59  73 SE7       29.43F
LEXINGTON      CLOUDY    67  60  78 E12       29.44F
6HR MIN TEMP:  60; 6HR MAX TEMP:  67; 6HR PCP:  0.04;

FRANKFORT      CLOUDY    68  60  75 SE6       29.41F
6HR MIN TEMP:  60; 6HR MAX TEMP:  68; 6HR PCP:  0.04;

LOUISVILLE     CLOUDY    64  58  80 N7        29.43F
6HR MIN TEMP:  62; 6HR MAX TEMP:  65; 6HR PCP:  0.08;

LEBANON*       MOCLDY    68  59  73 NE5       29.41F
GLASGOW*       RAIN      64  64  98 N6        29.38F
BOWLING GREEN  CLOUDY    61  60  97 NW7       29.41S
6HR MIN TEMP:  61; 6HR MAX TEMP:  63; 6HR PCP:  0.25;

$$

KYZ091>093-OHZ055-061-077-WVZ005-015-034-035-042-241900
...SOUTHERN OHIO/WEST VIRGINIA...

CITY           SKY/WX    TMP DP  RH WIND       PRES   REMARKS
COVINGTON      TSTM      64  61  90 SE5       29.43F FOG
COLUMBUS       CLOUDY    66  60  81 E8        29.49F
DAYTON         CLOUDY    69  58  67 SE15G23   29.46F
WILMINGTON     CLOUDY    67  59  75 SE10      29.47F
HUNTINGTON     LGT RAIN  66  62  87 NE5       29.48F
CHARLESTON     LGT RAIN  70  57  63 SE9       29.50F
PINEVILLE*     CLOUDY    67  58  72 MISG      29.57F
BECKLEY        CLOUDY    61  55  81 SE15G25   29.59F
BLUEFIELD      CLOUDY    57  54  89 SE5       29.60F
LOGAN CO APT*  MOCLDY    64  59  82 SE14G21   29.49F THUNDER
$$

VAZ002-007-008-TNZ017-027-036-066-071-241900
...SOUTHWEST VIRGINIA/EAST TENNESSEE...

CITY           SKY/WX    TMP DP  RH WIND       PRES   REMARKS
WISE*          TSTM      63  63 100 SE5       29.53R
JONESVILLE*      N/A     64  61  88 SW6       29.54R
ABINGDON*      CLOUDY    69  59  69 S10G17    29.51F
MORRISTOWN*    PTCLDY    61  59  94 SW10      29.51F
SEVIERVILLE*   PTCLDY    61  57  88 CALM      29.50F
KNOXVILLE      CLOUDY    64  58  80 SW8       29.50F
LAFOLLETTE*    MOCLDY    66  61  82 S16G22    29.51S
OAK RIDGE      CLOUDY    66  60  81 S8        29.50F
CROSSVILLE     PTSUNNY   67  56  67 S8G24     29.46F
NASHVILLE      CLOUDY    61  58  90 NW15G22   29.44R
$$

...KEY TO REMARKS...
VSB - VISIBILITY IN MILES
WCI - WIND CHILL INDEX
HX  - HEAT INDEX

$$




USA.gov is the U.S. government's official web portal to all federal, state and local government web resources and services.